Terminal Aerodrome Forecast
Issued by NWS Wilmington, OH

Current Version | Previous Version | Graphics & Text | Print | Product List | Glossary On
Versions: 1 2 3 4 5 6 7 8 9 10 11 12 13 14 15 16 17 18 19 20 21 22 23 24 25 26 27 28 29
000
FTUS41 KILN 031100
TAFCMH
TAF
KCMH 031129Z 0312/0412 12004KT 6SM -FZRA OVC050
     FM031500 14008KT 6SM -FZRA OVC025
     FM031900 18011KT 5SM -SHRA BR BKN018 OVC035
     FM032300 22012G20KT 4SM -SHRA BR BKN008 OVC025
     FM040500 27010KT 4SM -SHRA BR OVC007=

USA.gov is the U.S. government's official web portal to all federal, state and local government web resources and services.